| time (UTC) | temp C | wind direction | speed KPH | gust KPH | rain 1hr cm | rain 24hr cm | rain mn cm | humidity % | barometer mb |
| 20260507183910 | 25 | 231 | 8.0 | 1.6 | 0.00 | 0.00 | 0.00 | ||
| 20260507183411 | 25 | 266 | 8.0 | 11.3 | 0.00 | 0.00 | 0.00 | ||
| 20260507182909 | 25 | 304 | 4.8 | 8.0 | 0.00 | 0.00 | 0.00 | ||
| 20260507182410 | 25 | 356 | 1.6 | 0.0 | 0.00 | 0.00 | 0.00 | ||
| 20260507181908 | 24 | 295 | 6.4 | 4.8 | 0.00 | 0.00 | 0.00 | ||
| 20260507181410 | 24 | 273 | 0.0 | 1.6 | 0.00 | 0.00 | 0.00 | ||
| 20260507180409 | 23 | 256 | 1.6 | 0.0 | 0.00 | 0.00 | 0.00 | ||
| 20260507175907 | 23 | 262 | 0.0 | 0.0 | 0.00 | 0.00 | 0.00 | ||
| 20260507175408 | 23 | 309 | 3.2 | 3.2 | 0.00 | 0.00 | 0.00 | ||
| 20260507174906 | 23 | 305 | 0.0 | 1.6 | 0.00 | 0.00 | 0.00 | ||
| 20260507174407 | 23 | 323 | 3.2 | 1.6 | 0.00 | 0.00 | 0.00 | ||
| 20260507173906 | 23 | 346 | 3.2 | 3.2 | 0.00 | 0.00 | 0.00 | ||
| 20260507173407 | 23 | 325 | 1.6 | 0.0 | 0.00 | 0.00 | 0.00 | ||
| 20260507172905 | 23 | 280 | 4.8 | 0.0 | 0.00 | 0.00 | 0.00 | ||
| 20260507172406 | 23 | 198 | 3.2 | 0.0 | 0.00 | 0.00 | 0.00 | ||
| 20260507171905 | 23 | 238 | 0.0 | 0.0 | 0.00 | 0.00 | 0.00 | ||
| 20260507171405 | 23 | 256 | 1.6 | 3.2 | 0.00 | 0.00 | 0.00 | ||
| 20260507170904 | 23 | 278 | 4.8 | 3.2 | 0.00 | 0.00 | 0.00 | ||
| 20260507170405 | 23 | 295 | 0.0 | 0.0 | 0.00 | 0.00 | 0.00 | ||
| 20260507165903 | 22 | 208 | 0.0 | 0.0 | 0.00 | 0.00 | 0.00 | ||
| 20260507165404 | 22 | 359 | 3.2 | 1.6 | 0.00 | 0.00 | 0.00 | ||
| 20260507164902 | 22 | 307 | 0.0 | 0.0 | 0.00 | 0.00 | 0.00 | ||
| 20260507164403 | 22 | 305 | 1.6 | 0.0 | 0.00 | 0.00 | 0.00 | ||
| 20260507163901 | 22 | 238 | 1.6 | 3.2 | 0.00 | 0.00 | 0.00 | ||
| 20260507163402 | 22 | 249 | 3.2 | 1.6 | 0.00 | 0.00 | 0.00 | ||
| 20260507162901 | 22 | 149 | 0.0 | 0.0 | 0.00 | 0.00 | 0.00 | ||
| 20260507162402 | 22 | 155 | 1.6 | 4.8 | 0.00 | 0.00 | 0.00 | ||
| 20260507161900 | 22 | 101 | 1.6 | 0.0 | 0.00 | 0.00 | 0.00 | ||
| 20260507161401 | 22 | 14 | 0.0 | 0.0 | 0.00 | 0.00 | 0.00 | ||
| 20260507160859 | 22 | 48 | 1.6 | 3.2 | 0.00 | 0.00 | 0.00 | ||
| 20260507160400 | 22 | 277 | 4.8 | 9.7 | 0.00 | 0.00 | 0.00 | ||
| 20260507155858 | 22 | 207 | 3.2 | 0.0 | 0.00 | 0.00 | 0.00 | ||
| 20260507155359 | 22 | 308 | 0.0 | 0.0 | 0.00 | 0.00 | 0.00 | ||
| 20260507154858 | 23 | 7 | 6.4 | 8.0 | 0.00 | 0.00 | 0.00 | ||
| 20260507154359 | 23 | 278 | 6.4 | 3.2 | 0.00 | 0.00 | 0.00 | ||
| 20260507153857 | 23 | 359 | 3.2 | 8.0 | 0.00 | 0.00 | 0.00 | ||
| 20260507153358 | 23 | 117 | 1.6 | 1.6 | 0.00 | 0.00 | 0.00 | ||
| 20260507152856 | 23 | 295 | 3.2 | 1.6 | 0.00 | 0.00 | 0.00 | ||
| 20260507152357 | 23 | 260 | 4.8 | 3.2 | 0.00 | 0.00 | 0.00 | ||
| 20260507151855 | 23 | 259 | 3.2 | 1.6 | 0.00 | 0.00 | 0.00 | ||
| 20260507151356 | 23 | 329 | 4.8 | 4.8 | 0.00 | 0.00 | 0.00 | ||
| 20260507150356 | 23 | 249 | 6.4 | 4.8 | 0.00 | 0.00 | 0.00 | ||
| 20260507145854 | 23 | 297 | 4.8 | 4.8 | 0.00 | 0.00 | 0.00 | ||
| 20260507145355 | 23 | 328 | 4.8 | 1.6 | 0.00 | 0.00 | 0.00 | ||
| 20260507144853 | 23 | 352 | 4.8 | 3.2 | 0.00 | 0.00 | 0.00 | ||
| 20260507144354 | 22 | 329 | 3.2 | 11.3 | 0.00 | 0.00 | 0.00 | ||
| 20260507143852 | 22 | 277 | 4.8 | 4.8 | 0.00 | 0.00 | 0.00 | ||
| 20260507143353 | 22 | 333 | 1.6 | 3.2 | 0.00 | 0.00 | 0.00 | ||
| 20260507142851 | 22 | 231 | 1.6 | 1.6 | 0.00 | 0.00 | 0.00 | ||
| 20260507142352 | 23 | 356 | 3.2 | 4.8 | 0.00 | 0.00 | 0.00 | ||
| 20260507141851 | 23 | 346 | 3.2 | 1.6 | 0.00 | 0.00 | 0.00 | ||
| 20260507141352 | 22 | 349 | 1.6 | 1.6 | 0.00 | 0.00 | 0.00 | ||
| 20260507140849 | 22 | 305 | 1.6 | 1.6 | 0.00 | 0.00 | 0.00 | ||
| 20260507140351 | 22 | 318 | 1.6 | 3.2 | 0.00 | 0.00 | 0.00 | ||
| 20260507135847 | 22 | 271 | 6.4 | 3.2 | 0.00 | 0.00 | 0.00 | ||
| 20260507135348 | 22 | 315 | 0.0 | 0.0 | 0.00 | 0.00 | 0.00 | ||
| 20260507134845 | 22 | 315 | 0.0 | 0.0 | 0.00 | 0.00 | 0.00 | ||
| 20260507134345 | 22 | 315 | 0.0 | 0.0 | 0.00 | 0.00 | 0.00 | ||
| 20260507133842 | 22 | 315 | 0.0 | 0.0 | 0.00 | 0.00 | 0.00 | ||
| 20260507133342 | 22 | 315 | 0.0 | 0.0 | 0.00 | 0.00 | 0.00 | ||
| 20260507132839 | 21 | 315 | 0.0 | 0.0 | 0.00 | 0.00 | 0.00 | ||
| 20260507132340 | 21 | 315 | 0.0 | 0.0 | 0.00 | 0.00 | 0.00 | ||
| 20260507131836 | 22 | 315 | 0.0 | 0.0 | 0.00 | 0.00 | 0.00 | ||
| 20260507131337 | 22 | 315 | 0.0 | 0.0 | 0.00 | 0.00 | 0.00 | ||
| 20260507130833 | 21 | 315 | 3.2 | 0.0 | 0.00 | 0.00 | 0.00 | ||
| 20260507130334 | 21 | 69 | 0.0 | 0.0 | 0.00 | 0.00 | 0.00 | ||
| 20260507125832 | 21 | 138 | 6.4 | 9.7 | 0.00 | 0.00 | 0.00 | ||
| 20260507124831 | 21 | 232 | 0.0 | 0.0 | 0.00 | 0.00 | 0.00 | ||
| 20260507124332 | 22 | 232 | 0.0 | 0.0 | 0.00 | 0.00 | 0.00 | ||
| 20260507123831 | 21 | 346 | 0.0 | 0.0 | 0.00 | 0.00 | 0.00 | ||
| 20260507123332 | 21 | 346 | 0.0 | 0.0 | 0.00 | 0.00 | 0.00 | ||
| 20260507122830 | 21 | 0 | 0.0 | 0.0 | 0.00 | 0.00 | 0.00 | ||
| 20260507121828 | 21 | 318 | 1.6 | 0.0 | 0.00 | 0.00 | 0.00 | ||
| 20260507121330 | 21 | 276 | 0.0 | 0.0 | 0.00 | 0.00 | 0.00 | ||
| 20260507120827 | 21 | 10 | 1.6 | 3.2 | 0.00 | 0.00 | 0.00 | ||
| 20260507120328 | 21 | 339 | 0.0 | 0.0 | 0.00 | 0.00 | 0.00 | ||
| 20260507115826 | 21 | 226 | 0.0 | 0.0 | 0.00 | 0.00 | 0.00 | ||
| 20260507115327 | 21 | 326 | 4.8 | 1.6 | 0.00 | 0.00 | 0.00 | ||
| 20260507114826 | 21 | 236 | 0.0 | 0.0 | 0.00 | 0.00 | 0.00 | ||
| 20260507114327 | 21 | 257 | 0.0 | 0.0 | 0.00 | 0.00 | 0.00 | ||
| 20260507113825 | 20 | 13 | 0.0 | 0.0 | 0.00 | 0.00 | 0.00 | ||
| 20260507113327 | 21 | 13 | 0.0 | 0.0 | 0.00 | 0.00 | 0.00 | ||
| 20260507112822 | 21 | 13 | 0.0 | 0.0 | 0.00 | 0.00 | 0.00 | ||
| 20260507112323 | 21 | 13 | 0.0 | 0.0 | 0.00 | 0.00 | 0.00 | ||
| 20260507111821 | 21 | 13 | 0.0 | 0.0 | 0.00 | 0.00 | 0.00 | ||
| 20260507111322 | 21 | 13 | 0.0 | 0.0 | 0.00 | 0.00 | 0.00 | ||
| 20260507110821 | 21 | 13 | 0.0 | 0.0 | 0.00 | 0.00 | 0.00 | ||
| 20260507110322 | 21 | 13 | 0.0 | 0.0 | 0.00 | 0.00 | 0.00 | ||
| 20260507105820 | 21 | 13 | 0.0 | 0.0 | 0.00 | 0.00 | 0.00 | ||
| 20260507105321 | 21 | 13 | 0.0 | 0.0 | 0.00 | 0.00 | 0.00 | ||
| 20260507104819 | 21 | 13 | 0.0 | 0.0 | 0.00 | 0.00 | 0.00 | ||
| 20260507104320 | 21 | 13 | 0.0 | 0.0 | 0.00 | 0.00 | 0.00 | ||
| 20260507103818 | 21 | 308 | 3.2 | 0.0 | 0.00 | 0.00 | 0.00 | ||
| 20260507103319 | 21 | 11 | 3.2 | 1.6 | 0.00 | 0.00 | 0.00 | ||
| 20260507102818 | 21 | 308 | 3.2 | 3.2 | 0.00 | 0.00 | 0.00 | ||
| 20260507102319 | 21 | 246 | 0.0 | 4.8 | 0.00 | 0.00 | 0.00 | ||
| 20260507101818 | 21 | 252 | 1.6 | 1.6 | 0.00 | 0.00 | 0.00 | ||
| 20260507101318 | 21 | 281 | 1.6 | 1.6 | 0.00 | 0.00 | 0.00 | ||
| 20260507100816 | 21 | 27 | 1.6 | 0.0 | 0.00 | 0.00 | 0.00 | ||
| 20260507100318 | 21 | 328 | 0.0 | 3.2 | 0.00 | 0.00 | 0.00 | ||
| 20260507095815 | 21 | 214 | 0.0 | 0.0 | 0.00 | 0.00 | 0.00 | ||
| 20260507095316 | 21 | 322 | 3.2 | 4.8 | 0.00 | 0.00 | 0.00 | ||
| 20260507094814 | 21 | 343 | 4.8 | 1.6 | 0.00 | 0.00 | 0.00 | ||
| 20260507093813 | 21 | 224 | 0.0 | 0.0 | 0.00 | 0.00 | 0.00 | ||
| 20260507093315 | 21 | 340 | 6.4 | 3.2 | 0.00 | 0.00 | 0.00 | ||
| 20260507092813 | 21 | 332 | 0.0 | 4.8 | 0.00 | 0.00 | 0.00 | ||
| 20260507092314 | 21 | 294 | 1.6 | 1.6 | 0.00 | 0.00 | 0.00 | ||
| 20260507091812 | 21 | 287 | 0.0 | 0.0 | 0.00 | 0.00 | 0.00 | ||
| 20260507091313 | 21 | 228 | 1.6 | 1.6 | 0.00 | 0.00 | 0.00 | ||
| 20260507090311 | 21 | 4 | 1.6 | 3.2 | 0.00 | 0.00 | 0.00 | ||
| 20260507085809 | 21 | 211 | 0.0 | 0.0 | 0.00 | 0.00 | 0.00 | ||
| 20260507084805 | 21 | 34 | 0.0 | 1.6 | 0.00 | 0.00 | 0.00 | ||
| 20260507084304 | 21 | 321 | 1.6 | 0.0 | 0.00 | 0.00 | 0.00 | ||
| 20260507083801 | 21 | 228 | 0.0 | 0.0 | 0.00 | 0.00 | 0.00 | ||
| 20260507083302 | 20 | 228 | 1.6 | 0.0 | 0.00 | 0.00 | 0.00 | ||
| 20260507082800 | 21 | 134 | 0.0 | 0.0 | 0.00 | 0.00 | 0.00 | ||
| 20260507081758 | 21 | 80 | 0.0 | 0.0 | 0.00 | 0.00 | 0.00 | ||
| 20260507081259 | 21 | 80 | 0.0 | 0.0 | 0.00 | 0.00 | 0.00 | ||
| 20260507080757 | 21 | 80 | 0.0 | 0.0 | 0.00 | 0.00 | 0.00 | ||
| 20260507080258 | 21 | 80 | 0.0 | 0.0 | 0.00 | 0.00 | 0.00 | ||
| 20260507075756 | 21 | 80 | 0.0 | 0.0 | 0.00 | 0.00 | 0.00 | ||
| 20260507075257 | 21 | 80 | 0.0 | 0.0 | 0.00 | 0.00 | 0.00 | ||
| 20260507074257 | 21 | 80 | 0.0 | 0.0 | 0.00 | 0.00 | 0.00 | ||
| 20260507073755 | 21 | 80 | 0.0 | 0.0 | 0.00 | 0.00 | 0.00 | ||
| 20260507072751 | 21 | 80 | 0.0 | 0.0 | 0.00 | 0.00 | 0.00 | ||
| 20260507072252 | 21 | 80 | 0.0 | 0.0 | 0.00 | 0.00 | 0.00 | ||
| 20260507071750 | 21 | 80 | 0.0 | 0.0 | 0.00 | 0.00 | 0.00 | ||
| 20260507071251 | 21 | 80 | 0.0 | 0.0 | 0.00 | 0.00 | 0.00 | ||
| 20260507070750 | 21 | 80 | 0.0 | 0.0 | 0.00 | 0.00 | 0.00 | ||
| 20260507070251 | 21 | 80 | 0.0 | 0.0 | 0.00 | 0.00 | 0.00 | ||
| 20260507065749 | 21 | 80 | 0.0 | 0.0 | 0.00 | 0.00 | 0.00 | ||
| 20260507064747 | 21 | 129 | 4.8 | 3.2 | 0.00 | 0.00 | 0.00 | ||
| 20260507064247 | 21 | 6 | 0.0 | 0.0 | 0.00 | 0.00 | 0.00 | ||
| 20260507063746 | 21 | 6 | 0.0 | 0.0 | 0.00 | 0.00 | 0.00 | ||
| 20260507063247 | 21 | 6 | 0.0 | 0.0 | 0.00 | 0.00 | 0.00 | ||
| 20260507062745 | 21 | 6 | 0.0 | 0.0 | 0.00 | 0.00 | 0.00 | ||
| 20260507062246 | 22 | 6 | 0.0 | 0.0 | 0.00 | 0.00 | 0.00 | ||
| 20260507061745 | 22 | 6 | 0.0 | 0.0 | 0.00 | 0.00 | 0.00 | ||
| 20260507060957 | 22 | 6 | 0.0 | 0.0 | 0.00 | 0.00 | 0.00 | ||
| 20260507060858 | 22 | 6 | 0.0 | 0.0 | 0.00 | 0.00 | 0.00 | ||
| 20260507060743 | 22 | 6 | 0.0 | 0.0 | 0.00 | 0.00 | 0.00 | ||
| 20260507060244 | 22 | 6 | 0.0 | 0.0 | 0.00 | 0.00 | 0.00 | ||
| 20260507055743 | 22 | 6 | 0.0 | 0.0 | 0.00 | 0.00 | 0.00 | ||
| 20260507054939 | 22 | 6 | 0.0 | 0.0 | 0.00 | 0.00 | 0.00 | ||
| 20260507054742 | 22 | 6 | 0.0 | 0.0 | 0.00 | 0.00 | 0.00 | ||
| 20260507054321 | 22 | 6 | 0.0 | 0.0 | 0.00 | 0.00 | 0.00 | ||
| 20260507054243 | 22 | 6 | 0.0 | 0.0 | 0.00 | 0.00 | 0.00 | ||
| 20260507053741 | 22 | 6 | 0.0 | 0.0 | 0.00 | 0.00 | 0.00 | ||
| 20260507052741 | 22 | 354 | 0.0 | 3.2 | 0.00 | 0.00 | 0.00 | ||
| 20260507051744 | 22 | 273 | 1.6 | 0.0 | 0.00 | 0.00 | 0.00 | ||
| 20260507051241 | 22 | 298 | 0.0 | 1.6 | 0.00 | 0.00 | 0.00 | ||
| 20260507050739 | 22 | 338 | 4.8 | 8.0 | 0.00 | 0.00 | 0.00 | ||
| 20260507050417 | 22 | 288 | 3.2 | 3.2 | 0.00 | 0.00 | 0.00 | ||
| 20260507050240 | 22 | 288 | 3.2 | 3.2 | 0.00 | 0.00 | 0.00 | ||
| 20260507050007 | 22 | 357 | 3.2 | 3.2 | 0.00 | 0.00 | 0.00 | ||
| 20260507045859 | 22 | 357 | 3.2 | 3.2 | 0.00 | 0.00 | 0.00 | ||
| 20260507045444 | 22 | 357 | 3.2 | 3.2 | 0.00 | 0.00 | 0.00 | ||
| 20260507045239 | 22 | 357 | 3.2 | 3.2 | 0.00 | 0.00 | 0.00 | ||
| 20260507044239 | 22 | 235 | 1.6 | 0.0 | 0.00 | 0.00 | 0.00 | ||
| 20260507043737 | 22 | 354 | 4.8 | 4.8 | 0.00 | 0.00 | 0.00 | ||
| 20260507043238 | 22 | 17 | 1.6 | 8.0 | 0.00 | 0.00 | 0.00 | ||
| 20260507042736 | 22 | 281 | 4.8 | 3.2 | 0.00 | 0.00 | 0.00 | ||
| 20260507040736 | 22 | 297 | 4.8 | 8.0 | 0.00 | 0.00 | 0.00 | ||
| 20260507040545 | 22 | 305 | 1.6 | 1.6 | 0.00 | 0.00 | 0.00 | ||
| 20260507040236 | 22 | 305 | 1.6 | 1.6 | 0.00 | 0.00 | 0.00 | ||
| 20260507035734 | 22 | 219 | 4.8 | 3.2 | 0.00 | 0.00 | 0.00 | ||
| 20260507035236 | 22 | 18 | 8.0 | 1.6 | 0.00 | 0.00 | 0.00 | ||
| 20260507035030 | 22 | 17 | 6.4 | 3.2 | 0.00 | 0.00 | 0.00 | ||
| 20260507034732 | 22 | 17 | 6.4 | 3.2 | 0.00 | 0.00 | 0.00 | ||
| 20260507034233 | 22 | 253 | 3.2 | 1.6 | 0.00 | 0.00 | 0.00 | ||
| 20260507033232 | 22 | 236 | 8.0 | 0.0 | 0.00 | 0.00 | 0.00 | ||
| 20260507032731 | 22 | 0 | 6.4 | 3.2 | 0.00 | 0.00 | 0.00 | ||
| 20260507031730 | 22 | 260 | 6.4 | 0.0 | 0.00 | 0.00 | 0.00 | ||
| 20260507031231 | 22 | 322 | 4.8 | 1.6 | 0.00 | 0.00 | 0.00 | ||
| 20260507030728 | 22 | 238 | 4.8 | 4.8 | 0.00 | 0.00 | 0.00 | ||
| 20260507030229 | 22 | 347 | 0.0 | 3.2 | 0.00 | 0.00 | 0.00 | ||
| 20260507025928 | 22 | 238 | 4.8 | 6.4 | 0.00 | 0.00 | 0.00 | ||
| 20260507025727 | 22 | 238 | 4.8 | 6.4 | 0.00 | 0.00 | 0.00 | ||
| 20260507025229 | 22 | 115 | 0.0 | 0.0 | 0.00 | 0.00 | 0.00 | ||
| 20260507024226 | 22 | 295 | 0.0 | 3.2 | 0.00 | 0.00 | 0.00 | ||
| 20260507023841 | 22 | 325 | 4.8 | 1.6 | 0.00 | 0.00 | 0.00 | ||
| 20260507023755 | 22 | 264 | 4.8 | 0.0 | 0.00 | 0.00 | 0.00 | ||
| 20260507023753 | 22 | 325 | 4.8 | 1.6 | 0.00 | 0.00 | 0.00 | ||
| 20260507023723 | 22 | 264 | 4.8 | 0.0 | 0.00 | 0.00 | 0.00 | ||
| 20260507023224 | 22 | 325 | 4.8 | 1.6 | 0.00 | 0.00 | 0.00 | ||
| 20260507022721 | 22 | 259 | 1.6 | 6.4 | 0.00 | 0.00 | 0.00 | ||
| 20260507022222 | 22 | 238 | 3.2 | 8.0 | 0.00 | 0.00 | 0.00 | ||
| 20260507021222 | 22 | 308 | 3.2 | 3.2 | 0.00 | 0.00 | 0.00 | ||
| 20260507020218 | 21 | 15 | 3.2 | 3.2 | 0.00 | 0.00 | 0.00 | ||
| 20260507015714 | 22 | 250 | 0.0 | 4.8 | 0.00 | 0.00 | 0.00 | ||
| 20260507015528 | 22 | 314 | 1.6 | 4.8 | 0.00 | 0.00 | 0.00 | ||
| 20260507015333 | 22 | 314 | 1.6 | 4.8 | 0.00 | 0.00 | 0.00 | ||
| 20260507015215 | 22 | 314 | 1.6 | 4.8 | 0.00 | 0.00 | 0.00 | ||
| 20260507014711 | 22 | 345 | 3.2 | 3.2 | 0.00 | 0.00 | 0.00 | ||
| 20260507013710 | 22 | 39 | 0.0 | 3.2 | 0.00 | 0.00 | 0.00 | ||
| 20260507012708 | 22 | 285 | 0.0 | 0.0 | 0.00 | 0.00 | 0.00 | ||
| 20260507011706 | 22 | 339 | 1.6 | 0.0 | 0.00 | 0.00 | 0.00 | ||
| 20260507011207 | 22 | 349 | 0.0 | 1.6 | 0.00 | 0.00 | 0.00 | ||
| 20260507010706 | 22 | 322 | 1.6 | 0.0 | 0.00 | 0.00 | 0.00 | ||
| 20260507010207 | 22 | 354 | 4.8 | 3.2 | 0.00 | 0.00 | 0.00 | ||
| 20260507005703 | 22 | 238 | 0.0 | 1.6 | 0.00 | 0.00 | 0.00 | ||
| 20260507005204 | 22 | 274 | 1.6 | 4.8 | 0.00 | 0.00 | 0.00 | ||
| 20260507004701 | 22 | 25 | 0.0 | 0.0 | 0.00 | 0.00 | 0.00 | ||
| 20260507003659 | 22 | 256 | 1.6 | 3.2 | 0.00 | 0.00 | 0.00 | ||
| 20260507003200 | 23 | 352 | 1.6 | 1.6 | 0.00 | 0.00 | 0.00 | ||
| 20260507002657 | 23 | 314 | 0.0 | 0.0 | 0.00 | 0.00 | 0.00 | ||
| 20260507002158 | 23 | 307 | 1.6 | 0.0 | 0.00 | 0.00 | 0.00 | ||
| 20260507001654 | 23 | 277 | 8.0 | 14.5 | 0.00 | 0.00 | 0.00 | ||
| 20260507000653 | 23 | 349 | 1.6 | 4.8 | 0.00 | 0.00 | 0.00 | ||
| 20260507000154 | 23 | 333 | 6.4 | 1.6 | 0.00 | 0.00 | 0.00 | ||
| 20260506235653 | 23 | 357 | 1.6 | 0.0 | 0.00 | 0.00 | 0.00 | ||
| 20260506235154 | 24 | 325 | 3.2 | 4.8 | 0.00 | 0.00 | 0.00 | ||
| 20260506234650 | 24 | 301 | 1.6 | 0.0 | 0.00 | 0.00 | 0.00 | ||
| 20260506234151 | 24 | 329 | 1.6 | 3.2 | 0.00 | 0.00 | 0.00 | ||
| 20260506233647 | 25 | 96 | 0.0 | 0.0 | 0.00 | 0.00 | 0.00 | ||
| 20260506233148 | 24 | 307 | 4.8 | 9.7 | 0.00 | 0.00 | 0.00 | ||
| 20260506232645 | 24 | 248 | 0.0 | 0.0 | 0.00 | 0.00 | 0.00 | ||
| 20260506231642 | 25 | 318 | 1.6 | 0.0 | 0.00 | 0.00 | 0.00 | ||
| 20260506231143 | 25 | 3 | 0.0 | 0.0 | 0.00 | 0.00 | 0.00 | ||
| 20260506230904 | 25 | 350 | 1.6 | 6.4 | 0.00 | 0.00 | 0.00 | ||
| 20260506230640 | 25 | 350 | 1.6 | 6.4 | 0.00 | 0.00 | 0.00 | ||
| 20260506230142 | 25 | 21 | 1.6 | 0.0 | 0.00 | 0.00 | 0.00 | ||
| 20260506225638 | 26 | 307 | 4.8 | 1.6 | 0.00 | 0.00 | 0.00 | ||
| 20260506225139 | 26 | 108 | 1.6 | 6.4 | 0.00 | 0.00 | 0.00 | ||
| 20260506224137 | 26 | 325 | 1.6 | 0.0 | 0.00 | 0.00 | 0.00 | ||
| 20260506223635 | 26 | 359 | 1.6 | 0.0 | 0.00 | 0.00 | 0.00 | ||
| 20260506222634 | 26 | 304 | 3.2 | 0.0 | 0.00 | 0.00 | 0.00 | ||
| 20260506222135 | 26 | 325 | 1.6 | 0.0 | 0.00 | 0.00 | 0.00 | ||
| 20260506221631 | 26 | 323 | 1.6 | 6.4 | 0.00 | 0.00 | 0.00 | ||
| 20260506221132 | 26 | 352 | 3.2 | 0.0 | 0.00 | 0.00 | 0.00 | ||
| 20260506220132 | 27 | 70 | 1.6 | 1.6 | 0.00 | 0.00 | 0.00 | ||
| 20260506215628 | 27 | 340 | 3.2 | 0.0 | 0.00 | 0.00 | 0.00 | ||
| 20260506215128 | 27 | 326 | 0.0 | 1.6 | 0.00 | 0.00 | 0.00 | ||
| 20260506214127 | 27 | 75 | 3.2 | 3.2 | 0.00 | 0.00 | 0.00 | ||
| 20260506213626 | 27 | 115 | 3.2 | 1.6 | 0.00 | 0.00 | 0.00 | ||
| 20260506212625 | 27 | 315 | 3.2 | 0.0 | 0.00 | 0.00 | 0.00 | ||
| 20260506211624 | 28 | 10 | 8.0 | 3.2 | 0.00 | 0.00 | 0.00 | ||
| 20260506205124 | 28 | 311 | 4.8 | 9.7 | 0.00 | 0.00 | 0.00 | ||
| 20260506204620 | 28 | 301 | 1.6 | 6.4 | 0.00 | 0.00 | 0.00 | ||
| 20260506204122 | 28 | 114 | 6.4 | 8.0 | 0.00 | 0.00 | 0.00 | ||
| 20260506203618 | 29 | 124 | 3.2 | 0.0 | 0.00 | 0.00 | 0.00 | ||
| 20260506203119 | 29 | 4 | 1.6 | 0.0 | 0.00 | 0.00 | 0.00 | ||
| 20260506202618 | 29 | 262 | 8.0 | 6.4 | 0.00 | 0.00 | 0.00 | ||
| 20260506202119 | 28 | 79 | 3.2 | 8.0 | 0.00 | 0.00 | 0.00 | ||
| 20260506201615 | 29 | 31 | 4.8 | 1.6 | 0.00 | 0.00 | 0.00 | ||
| 20260506201116 | 29 | 270 | 3.2 | 8.0 | 0.00 | 0.00 | 0.00 | ||
| 20260506200614 | 28 | 263 | 3.2 | 4.8 | 0.00 | 0.00 | 0.00 | ||
| 20260506200115 | 28 | 277 | 4.8 | 1.6 | 0.00 | 0.00 | 0.00 | ||
| 20260506195614 | 28 | 307 | 0.0 | 0.0 | 0.00 | 0.00 | 0.00 | ||
| 20260506195115 | 28 | 325 | 3.2 | 3.2 | 0.00 | 0.00 | 0.00 | ||
| 20260506194114 | 28 | 285 | 3.2 | 0.0 | 0.00 | 0.00 | 0.00 | ||
| 20260506193612 | 28 | 352 | 1.6 | 6.4 | 0.00 | 0.00 | 0.00 | ||
| 20260506191111 | 29 | 295 | 3.2 | 1.6 | 0.00 | 0.00 | 0.00 | ||
| 20260506190610 | 29 | 318 | 4.8 | 8.0 | 0.00 | 0.00 | 0.00 | ||
| 20260506190111 | 29 | 311 | 3.2 | 0.0 | 0.00 | 0.00 | 0.00 | ||
| 20260506185609 | 29 | 0 | 6.4 | 1.6 | 0.00 | 0.00 | 0.00 |